Location: *
(40.7190°N, 4.2480°W)
Time: 15:33:06
(UTC+00:00)

STARLINK-1064 - Pass Details

Date: 18 February 2020
Orbit: 548 x 551 km, 53.0° (Epoch: 28 March)

Event Time Altitude Azimuth Distance (km) Brightness Sun altitude
Exits shadow 05:15:17 43° 189° (S) 778 4.2 -22.0°
Drops below altitude 10° 05:18:30 10° 150° (SSE) 1,812 6.6 -21.4°
Sets 05:20:46 0° 145° (SE) 2,702 7.6 -20.9°
